Location: Unspecified
(47.9410°N, 0.0000°E)
Time: 06:25:57
(UTC+00:00)

Tiangong 2 - Visible Passes

Search period start: 21 May 2019 00:00
Search period end: 31 May 2019 00:00
Orbit: 379 x 387 km, 42.8° (Epoch: 20 May)

Date Brightness Start Highest point End Pass type
(mag) Time Alt. Az. Time Alt. Az. Time Alt. Az.
21 May 2.1 21:33:44 10° SW 21:36:04 28° S 21:36:04 28° S visible
22 May 2.3 20:34:01 10° SW 20:36:38 24° SSE 20:39:08 11° ESE visible
22 May 3.0 22:10:06 10° WSW 22:11:20 19° SW 22:11:20 19° SW visible
23 May 1.9 21:10:11 10° WSW 21:13:01 31° S 21:14:10 23° SE visible
24 May 2.3 21:46:41 10° WSW 21:49:04 26° SSW 21:49:04 26° SSW visible
25 May 2.0 20:46:41 10° WSW 20:49:30 30° S 20:51:41 14° SE visible
25 May 3.7 22:23:34 10° WSW 22:23:51 11° WSW 22:23:51 11° WSW visible
26 May 2.5 21:23:19 10° WSW 21:25:51 22° SSW 21:26:25 21° S visible
27 May 2.3 20:23:14 10° WSW 20:25:58 27° S 20:28:41 10° SE visible
27 May 3.6 22:00:44 10° SW 22:01:07 11° SW 22:01:07 11° SW visible
28 May 3.0 21:00:04 10° WSW 21:02:14 17° SSW 21:03:38 13° S visible
30 May 3.5 20:37:10 10° SW 20:38:32 12° SSW 20:39:56 10° S visible
